www.pogodaiklimat.ru

Погода и климат >> Архив погоды >> Россия >> Калмыкия >> Малые Дербеты


ПОГОДА в Малых Дербетах

  • Прогноз погоды в Малых Дербетах
  • Монитор погоды в Малых Дербетах

АРХИВ ПОГОДЫ в Малых Дербетах

Время (UTC), дата Ветер
(напр.,м/с)
 
Видим.   Явления Облачность Т
(С)
Тd
(С)
f
(%)
Тe
(С)
Тes
(С)
Комфортность P
(гПа)
Po
(гПа)
Тmin
(С)
Tmax
(С)
R
(мм)
R24
(мм)
S
(см)
18 19.05 СЗ 2 20 км ясно +19.2 +6.2 43 +20 +20 1013.4 1012.3
21 19.05 СЗ 2 20 км ясно +15.2 +6.3 55 +15 +15 1014.1 1013.0
00 20.05 СЗ 3 20 км ясно +13.4 +5.7 60 +12 +12 1015.0 1014.0
03 20.05 С 3 20 км ясно +12.9 +4.8 58 +12 +13 1017.5 1016.4 +11.3
06 20.05 СВ 5 20 км ясно +18.9 +1.1 30 +19 +25 1018.4 1017.3
09 20.05 С 4 20 км пыльный позёмок 3/0
[Ci fib]
+21.0 -0.8 23 +21 +32 комфорт 1019.0 1017.9
12 20.05 С 3 20 км 10/0
[Ci fib]
+20.9 -1.0 23 +21 +29 комфорт 1019.3 1018.2
15 20.05 С 2 20 км 8/0
[Ci fib]
+20.6 -1.8 22 +21 +22 комфорт 1019.3 1018.2 +21.6
18 20.05 Ю 1 20 км 10/0
[Ci fib]
+13.3 +1.7 45 +14 +14 1020.0 1018.9
21 20.05 штиль 0 20 км 10/0
[Ci fib]
+10.4 +1.3 53 +10 +10 1020.0 1018.9
00 21.05 В 1 20 км 3/0
[Ci fib]
+8.2 +1.8 64 +8 +8 1021.0 1019.9
03 21.05 В 1 20 км 4/0
[Ci fib]
+11.2 +2.5 55 +11 +13 1022.7 1021.6 +6.4
06 21.05 ЮВ 3 20 км 1/0
[Ci fib]
+19.4 -0.2 27 +20 +29 1023.2 1022.1
09 21.05 СВ 1 20 км 3/0
[Ci fib]
+22.6 -0.7 21 +22 +41 комфорт 1022.6 1021.5
12 21.05 СВ 2 20 км 3/0
[Ci fib]
+24.1 -1.9 18 +23 +33 комфорт 1021.3 1020.3
15 21.05 В 2 20 км 1/0
[Ci fib]
+23.7 -0.9 20 +22 +24 комфорт 1020.4 1019.3 +25.0
18 21.05 ЮВ 2 20 км 3/0
[Ci fib]
+15.6 +2.2 40 +16 +16 1021.1 1020.0
21 21.05 ЮВ 2 20 км 1/0
[Ci fib]
+12.7 +0.6 43 +12 +12 1021.2 1020.1
00 22.05 Ю 1 20 км 10/0
[Ci fib]
+9.3 +0.4 54 +9 +9 1020.7 1019.6
03 22.05 ЮВ 1 20 км 10/0
[Ci fib]
+12.5 +3.3 53 +13 +14 1020.8 1019.7 +8.0
06 22.05 Ю 4 20 км 10/0
[Cs]
+20.9 +2.0 29 +21 +27 комфорт 1020.1 1019.0
09 22.05 В 5-10
{10}
20 км пыльный позёмок 10/0
[Cs]
+22.7 +0.9 24 +22 +30 комфорт 1018.1 1017.1
12 22.05 ЮВ 5-11
{11}
20 км пыльный позёмок 10/0
[Cs]
+25.1 +0.3 20 +24 +28 комфорт 1016.1 1015.0
15 22.05 ЮВ 4
{11}
20 км 10/0
[Ac lent Cs]
+23.1 +2.1 25 +23 +23 комфорт 1015.1 1014.0 +25.1
18 22.05 В 3 20 км 10/0
[Ci sp]
+18.0 +1.3 33 +18 +18 1014.5 1013.4
21 22.05 ЮВ 4 20 км 10/0
[Ci fib]
+17.7 +6.1 46 +17 +17 1014.1 1013.0
00 23.05 ЮВ 3 20 км 9/0
[Ac As]
+16.5 +7.1 54 +16 +16 1013.0 1011.9
03 23.05 ЮВ 2 20 км {ливн. осадки} 10/3 600 м
[Cb cap Ac trans]
+14.5 +10.4 76 +14 +15 1012.4 1011.3 +14.0 0.3
06 23.05 Ю 2 20 км в посл. час ливневой дождь 10/3 600 м
[Cu med, cong Ac trans Ci fib]
+18.9 +13.7 72 +20 +24 1011.4 1010.3
09 23.05 ЮВ 2 20 км 6/6 600 м
[Cb cap]
+23.3 +11.6 48 +26 +33 жарко 1009.2 1008.1
12 23.05 В 1 10 км гроза, ливневой дождь 10/5 600 м
[Cb cap Ac trans]
+19.7 +13.4 67 +23 +25 комфорт 1008.7 1007.7
15 23.05 СВ 2
{14}
20 км {гроза, ливн. осадки} 8/1 600 м
[Cu med, cong Ac As Ci fib]
+19.0 +12.9 68 +21 +21 комфорт 1008.9 1007.9 +24.7 6
18 23.05 З 1 20 км {гроза} 4/0
[Ac lent Ci fib]
+15.6 +11.6 77 +16 +16 1008.8 1007.7
21 23.05 ЮЗ 2 20 км ясно +14.1 +10.7 80 +14 +14 1008.5 1007.5
00 24.05 ЮЗ 2 20 км ясно +13.7 +11.4 86 +13 +13 1007.8 1006.7
03 24.05 ЮЗ 3 20 км 10/0
[Ac trans]
+15.2 +13.1 87 +14 +15 1007.9 1006.8 +12.8
06 24.05 З 3 20 км 10/0
[Ac trans]
+20.5 +13.6 65 +23 +27 комфорт 1008.2 1007.2
09 24.05 З 4
{11}
20 км 3/3 600 м
[Cu med, cong]
+25.9 +8.4 33 +26 +35 жарко 1008.0 1006.9
12 24.05 З 3 20 км 4/4 600 м
[Cu med, cong]
+26.1 +8.3 32 +26 +32 жарко 1008.2 1007.2
15 24.05 З 2 20 км 3/3 600 м
[Cu med, cong]
+26.7 +8.6 32 +27 +28 жарко 1008.5 1007.5 +28.2
18 24.05 ЮЗ 2 20 км 3/3 600 м
[Sc diur, vesp]
+20.2 +12.5 61 +23 +23 комфорт 1009.9 1008.8
21 24.05 ЮЗ 2 20 км 1/0
[Ac lent]
+17.0 +12.1 73 +17 +17 1010.7 1009.7
00 25.05 СЗ 2 20 км 3/0
[Ci fib]
+16.0 +13.5 85 +16 +16 1011.5 1010.4
03 25.05 СВ 3 20 км 10/0
[Ci fib]
+15.8 +12.8 82 +15 +16 1012.9 1011.8 +15.0
06 25.05 СВ 4 20 км 10/0
[Ci fib]
+19.7 +12.1 62 +21 +27 комфорт 1012.8 1011.7
09 25.05 В 5 20 км 10/0
[Ci fib]
+25.2 +11.9 43 +27 +34 жарко 1011.5 1010.5
12 25.05 В 6 20 км пыльный позёмок 10/3 600 м
[Cu med, cong Ci fib]
+28.4 +10.0 32 +29 +31 жарко 1009.1 1008.0
15 25.05 В 5
{12}
20 км 10/3 600 м
[Cu med, cong Ac lent Ci sp]
+27.3 +10.3 35 +28 +28 жарко 1008.4 1007.3 +28.6
18 25.05 С 1
{10}
10 км слаб. ливневой дождь 9/3 600 м
[Cb cap Ac As]
+18.9 +16.7 87 +21 +21 комфорт 1009.2 1008.1
21 25.05 штиль 0 20 км {ливн. осадки} 10/0
[Ci fib]
+18.0 +15.2 84 +18 +18 1010.3 1009.2
00 26.05 Ю 2 20 км 10/0
[Cs]
+16.5 +14.4 87 +17 +17 1009.9 1008.9
03 26.05 Ю 2 20 км 3/0
[Ci fib]
+17.1 +13.9 81 +17 +19 1010.4 1009.4 +14.0 2
06 26.05 Ю 3 20 км 8/8 600 м
[Cu med, cong]
+20.7 +13.5 63 +24 +25 комфорт 1010.8 1009.7
09 26.05 ЮЗ 3 20 км 6/6 600 м
[Cu med, cong]
+23.0 +12.5 52 +26 +32 жарко 1010.4 1009.4
12 26.05 Ю 3
{12}
20 км гроза без осадков {ливн. осадки} 9/6 600 м
[Cb cap Ac As]
+20.5 +14.4 68 +23 +25 комфорт 1010.8 1009.7
15 26.05 ЮЗ 2
{12}
20 км {гроза, ливн. осадки} 10/3 600 м
[Cb cap Cs]
+21.2 +14.0 63 +24 +25 комфорт 1010.4 1009.4 +25.9 0.4

 

Местоположение метеостанции Малые Дербеты (Калмыкия, Россия): широта 47.93 долгота 44.70 высота над уровнем моря 9 м.

В архиве по умолчанию представлена погода в Малых Дербетах за последнюю неделю. Архивные данные за месяц целиком и за предыдущие месяцы, начиная с января 2011 года, Вы можете получить, выбрав интересующий диапазон дат из раскрывающегося списка и нажав кнопку "Ввод!".


*Определитесь, кто Вы:
робот инопланетянин человек

Внимание! Время в таблицах - всемирное. Для получения местного времени необходимо прибавить поправку, которая равна 3 ч.

Смотрите также архив погоды в соседних городах и на ближайших метеорологических станциях:

Погода в Кетченерах (Калмыкия, Россия) (69 км)
Погода в Волгограде город (Волгоградская область, Россия) (84 км)
Погода в Волгограде (Волгоградская область, Россия) (98 км)
Погода в Черный Яр (Астраханская область, Россия) (107 км)
Погода в Котельниково (Волгоградская область, Россия) (121 км)
Погода в Калаче-на-Дону (Волгоградская область, Россия) (123 км)
Погода в Нижнем Чире (Волгоградская область, Россия) (125 км)
Погода в Юсте (Калмыкия, Россия) (151 км)
Погода в Верхнем Баскунчаке (Астраханская область, Россия) (154 км)
Погода в Иловле (Волгоградская область, Россия) (161 км)

Пояснения к столбцам:

Ветер - указаны скорость ветра в м/с - средняя за 10 мин, порывы в срок и между сроками (в фигурных скобках) и направление, откуда дует ветер: С - северный, СВ - северо-восточный, В - восточный, ЮВ - юго-восточный, Ю - южный, ЮЗ - юго-западный, З - западный, СЗ - северо-западный.
Видимость - горизонтальная дальность видимости в метрах или километрах. При видимости от 1 до 10 км при отсутствии осадков обычно наблюдается дымка, при ухудшении видимости до 1 км и менее - туман. В сухую погоду видимость может ухудшаться дымом, пылью или мглою.
Явления - указаны атмосферные явления, наблюдавшиеся в срок или в последний час перед сроком; фигурными скобками обозначены явления, наблюдавшиеся между сроками (за 1-3 часа до срока); квадратными скобками обозначены град или гололедные отложения с указанием их диаметра в мм.
Облачность - указаны через наклонную черту общая и нижняя облачность в баллах и высота нижней границы облаков в метрах; квадратными скобками обозначены формы облаков: Ci - перистые, Cs - перисто-слоистые, Cc - перисто-кучевые, Ac - высококучевые, As - высокослоистые, Sc - слоисто-кучевые, Ns - слоисто-дождевые, Cu - кучевые, Cb - кучево-дождевые. Подробнее классификацию облаков см. в Атласе облаков (PDF).
T - Температура воздуха - температура, измеренная на высоте 2 м над землей.
Td - Температура точки росы - температура, при понижении до которой содержащийся в воздухе водяной пар достигнет насыщения.
f - Относительная влажность воздуха - влажноcть воздуха, измеренная на высоте 2 м над землей.
Te - Эффективная температура - температура, которую ощущает одетый по сезону человек в тени. Характеристика душности погоды. При расчете учитывается влияние влажности воздуха и скорости ветра на теплоощущения человека.
Tes - Эффективная температура на солнце - температура, которую ощущает человек, с поправкой на солнечный нагрев. Характеристика знойности погоды. Зависит от высоты солнца над горизонтом, облачности и скорости ветра. Ночью, в пасмурную погоду, а также при ветре 12 м/с и более поправка равна нулю.
P - Атмосферное давление - приведенное к уровню моря атмосферное давление.
Po - Атмосферное давление - измеренное на уровне метеостанции атмосферное давление.
Tmin - Минимальная температура - минимум температуры воздуха на высоте 2 м над землей.
Tmax - Максимальная температура - максимум температуры воздуха на высоте 2 м над землей.
R - Количество осадков - Количество выпавших осадков за период времени, мм. При наведении курсора мыши на число - период времени, за который выпало указанное количество осадков.
R24 - Количество осадков - Количество выпавших осадков за 24 часа, мм.
S - Снежный покров - Высота снежного покрова, см. При наведении курсора мыши на число - состояние снежного покрова и степень покрытия местности в баллах.